ARIANE 3 DEB, 48350

Orbit data source: Space-Track

ARIANE 3 DEB, 48350 is space debris originally from a launch on Thu, 21 Jul 1988 UTC launched from the French Guiana (FRGUI). Debris objects in space refer to the collection of defunct objects orbiting the Earth. Examples of debris include non-operational satellites, rocket bodies, and fragments generated from explosions, collisions, or faulty payload assembly.

Loading next visibility...
Identifier
48350, 1988-063K
Orbit
Active
Country
Flag of FRFR
Related business
Manufacturer
Unknown
Mission
Spacecraft
Bus & Motor
Unknown
Mass
Unknown
Launch date (UTC)
1988-07-21 (38 years ago)
Launch vehicle
Unknown
Launch site
French Guiana (FRGUI)
Object type
Payload
Rocket body
Debris
Shape & HBR
Unknown shape, 0.2 m
Radar Cross Section
Medium (>0.1 m² and <1 m²)

Expand to show TLE details & history
Last TLE update: 10 months ago

TLE from 10 months ago
0 ARIANE 3 DEB
1 48350U 88063K   25247.17996790  .00070912  00000-0  84362-2 0  9997
2 48350   7.2459 133.6691 2848835 327.5055  17.7619  9.52156485291922
Epoch: 2025-09-04T04:19Z
TLE epoch observation values (Epoch: 2025-09-04T04:19:09.226Z)
Latitude
-0°
Longitude
85.33444°
Altitude
586.208 km
Speed
8.491 km/s
True Right ascension
08h 54m 40s
True Declination
0° 00' 00"
Sunlit
Object was in daylight at epoch
Visualization orbit readout
Latitude
Unknown
Longitude
Unknown
Altitude
Unknown
Speed
Unknown
Apparent Right ascension
Unknown
Apparent Declination
Unknown
Sunlit
N/A
Visualization observer readout
Local Sidereal Time
21:31:14
Azimuth
Unknown
Elevation
Unknown
Doppler factor
Unknown
Orbital elements
Apogee altitude
5,710.206 km
Perigee altitude
349.767 km
Semi-major axis
9,408.124 km
Eccentricity
0.28488
Inclination
7.2459°
RAAN
133.6691°
Arg. of periapsis
327.5055°
True anomaly
32.5075°
Mean anomaly
17.7619°
Eccentric anomaly
24.54155°
Mean motion
2.37842 °/min
Orbital period
151.36 mins
BSTAR
0.0084362
Loading maneuver chart data...
Computing Atmospheric mass density...
Loading historical data...
Loading historical data...
Loading historical data...
Loading historical data...
Loading historical data...
Loading historical data...
Loading historical data...

Documentation

Showing up to 5 results
|